Volver al catálogo

FREGAT DEB

LostUNKNOWN
NORAD 45628·DEBRIS·🇷🇺 Russia

Lanzado Jul 18, 2011 desde Baikonur Cosmodrome

Loading…

Próximos Pases (próximas 24 horas)

TLE

ObsoletoSource: Space-Track

Época: Feb 1, 2021, 07:18 UTC

1 45628U 11037U   21032.30480863  .00244520  00000-0  92197-1 0  9993
2 45628  51.5737 284.4538 2138260  35.6504 334.8047 10.66217397 24764

Sigue FREGAT DEB en tiempo real con AllMySat

Download on the App Store